Tracking 29892 objects as of 21-Nov-2024
HD Live streaming from Space Station
objects crossing your sky now

THORAD DELTA 1 DEB

Track THORAD DELTA 1 DEB now!
10-day predictions


NORAD ID: 17023
Int'l Code: 1974-089EW
Perigee: 1,370.1 km
Apogee: 1,453.5 km
Inclination: 101.4 °
Period: 113.9 minutes
Semi major axis: 7782 km
RCS: 0.042 m2 (small)
Launch date: November 15, 1974
Source: United States (US)
Launch site: AIR FORCE WESTERN TEST RANGE (AFWTR)

Note: This is SATELLITE DEBRIS
Your satellite tracking list
Your tracking list is empty




NASA's NSSDC Master Catalog

Two Line Element Set (TLE):
1 17023U 74089EW  24325.83820304  .00000175  00000-0  11834-2 0  9997
2 17023 101.4371 288.9301 0053579 340.5730  47.8290 12.64451137836230
Source of the keplerian elements: AFSPC